星链-2420 (STARLINK-2420 )

导读

STARLINK-2420是美国太空探索技术公司(SpaceX)星链(Starlink)星座的卫星,于2021年3月11日发射。星链计划旨在搭建全球卫星互联网,为全球提供高速网络服务,这颗卫星加入星座后,推进了星座组网进程,扩充了星座的网络覆盖与服务能力。

基本信息
目录编号:
47831
目录名称:
STARLINK-2420
国际标识:
2021-018AW
轨道中心:
EARTH
卫星名称:
星链-2420
卫星全名:
星链-2420 (STARLINK-2420 )
卫星状态:
在轨 (已飞行2003 天)
发射日期:
2021-03-11 UTC
国别 :
美国 (US)
星等 :
--
轨道信息
数据来源 国际轨道数据 AOE轨道数据
星历时间 2026-09-03T06:34:25+0800
1天前
查看轨道信息
2026-09-02T23:00:00+0800
1天前
查看轨道信息
半长轴 6848.914km 6848.851km
偏心率 0.000113 0.000157
轨道倾角 53.161° 53.161°
近地点辐角 83.690° 131.956°
升交点赤经 137.834° 139.304°
平近点角 276.423° 287.188°
近地点 470.003km 469.638km
远地点 471.551km 471.79km
周期 94.014分钟 94.013分钟
每日圈数 15.316877 15.31709
详细信息
固有亮度:
5
最大亮度:
2.5
卫星平台:
Starlink V1.0
覆盖范围:
全球
运营商:
太空探索技术公司
运营商所在国:
美国
制造商(研发单位):
太空探索技术公司
制造商所在国:
美国
使用方式:
暂无
卫星简介
星链(Starlink)计划是由太空探索技术公司(SpaceX)提出的一个巨型低轨卫星互联网星座项目,计划在2019年至2024年间在太空搭建由约1.2万颗卫星组成的“星链”网络,其中1584颗将部署在地球上空550千米处的近地轨道,并从2020年开始工作。该卫星仍在工作。
2D轨道图
3D轨道图
轨道高度分析图
轨道倾角分析图
轨道综合分析图
查看轨道综合分析图